Regional Weather Roundup
Issued by NWS

Home | Current Version | Previous Version | Graphics & Text | Print | Product List | Glossary On
Versions: 1 2 3 4 5 6 7 8 9 10 11 12 13 14 15 16 17 18 19 20 21 22 23 24 25 26 27 28 29 30 31 32 33 34 35 36 37 38 39 40 41 42 43 44 45 46 47 48 49 50
000
ASUS43 KBIS 312210
RWRND

NORTH DAKOTA REGIONAL WEATHER ROUNDUP
NATIONAL WEATHER SERVICE BISMARCK ND
500 PM CDT MON AUG 31 2015

NOTE: "FAIR" INDICATES FEW OR NO CLOUDS BELOW 12,000 FEET WITH NO
SIGNIFICANT WEATHER AND/OR OBSTRUCTIONS TO VISIBILITY.


NDZ001>003-009>011-017-312300-
NORTHWEST NORTH DAKOTA

CITY           SKY/WX    TMP DP  RH WIND       PRES   REMARKS
WILLISTON      SUNNY     78  33  19 W18G29    29.84F
MINOT          SUNNY     77  39  25 SW14      29.82S
MINOT AFB      SUNNY     80  39  22 W16G25    29.80S
$$

NDZ018>021-031>035-040>046-312300-
SOUTHWEST NORTH DAKOTA

CITY           SKY/WX    TMP DP  RH WIND       PRES   REMARKS
BISMARCK       MOSUNNY   84  42  22 NW10      29.87S
DICKINSON      SUNNY     78  36  21 W13G24    29.89F
GARRISON         N/A     77  44  30 W16       29.87S
HETTINGER ARPT SUNNY     80  38  22 MISG      29.92F
$$

NDZ004>008-012>016-024-026-027-054-312300-
NORTHEAST NORTH DAKOTA

CITY           SKY/WX    TMP DP  RH WIND       PRES   REMARKS
GRAND FORKS    CLOUDY    81  57  43 W12       29.77S
GRND FRKS AFB  CLOUDY    78  59  51 W10       29.79S
DEVILS LAKE    MOSUNNY   79  45  29 W15       29.81R
$$

NDZ022-023-025-028>030-036>039-047>053-312300-
SOUTHEAST NORTH DAKOTA

CITY           SKY/WX    TMP DP  RH WIND       PRES   REMARKS
FARGO          CLOUDY    80  65  59 CALM      29.81R
JAMESTOWN      CLOUDY    78  54  43 NW5       29.85S
$$




USA.gov is the U.S. government's official web portal to all federal, state and local government web resources and services.